Precipitable_Water
0.92 0.99 1.07 1.15 0.91 0.89 0.54 0.45 0.44 0.55 0.61 0.56 0.55 0.58 0.67 0.71 0.66 0.75 1.12 1.25 1.17 1.12 1.05 0.97 0.88 0.84 0.91 1.00 1.13 1.17 1.08 1.06 1.06 1.00 1.01 1.00 1.08 1.12 1.15 1.18 0.96 0.86 0.78 0.78 0.78 0.76 0.75 0.76 0.76
0.99 0.98 1.02 1.04 0.90 0.65 0.56 0.53 0.49 0.57 0.52 0.54 0.55 0.72 0.78 0.69 0.80 0.87 1.04 1.28 1.21 1.12 1.04 0.99 0.94 0.92 0.98 1.02 1.11 1.11 1.04 1.04 0.97 0.96 0.96 0.95 1.07 1.16 1.23 1.10 0.87 0.80 0.78 0.78 0.75 0.71 0.67 0.67 0.71
0.98 1.01 0.91 0.85 0.83 0.65 0.51 0.53 0.58 0.54 0.53 0.64 0.67 0.67 0.71 0.78 0.88 0.95 1.19 1.21 1.13 1.04 1.05 0.97 0.94 0.93 0.98 1.02 1.04 1.05 1.07 0.98 0.93 0.90 0.93 1.00 1.21 1.16 1.19 0.98 0.82 0.78 0.77 0.75 0.72 0.65 0.59 0.56 0.64
0.95 0.97 1.00 0.78 0.64 0.67 0.59 0.58 0.64 0.56 0.59 0.66 0.68 0.67 0.73 0.97 1.00 1.05 1.16 1.12 1.08 1.10 1.06 0.96 0.94 0.94 0.97 1.01 1.01 1.05 0.99 0.93 0.89 0.90 0.96 1.27 1.22 1.20 1.08 0.86 0.80 0.79 0.77 0.73 0.67 0.60 0.54 0.52 0.56
0.99 1.01 0.84 0.79 0.84 0.78 0.71 0.64 0.66 0.62 0.63 0.66 0.76 0.73 0.66 0.97 1.07 1.05 1.01 1.06 1.12 1.11 1.10 0.92 0.96 0.95 0.96 0.98 0.97 0.97 0.89 0.86 0.88 0.90 1.10 1.27 1.19 1.13 0.92 0.82 0.81 0.78 0.74 0.67 0.61 0.55 0.50 0.51 0.57
0.81 0.93 0.80 0.81 0.81 0.81 0.76 0.71 0.70 0.75 0.75 0.66 0.76 0.70 0.79 1.09 0.99 0.99 1.04 1.14 1.20 1.09 1.08 0.92 1.00 0.94 0.94 0.94 0.92 0.88 0.81 0.84 0.90 0.91 1.11 1.25 1.16 1.02 0.84 0.81 0.81 0.75 0.69 0.63 0.58 0.53 0.53 0.54 0.59
0.76 0.80 0.78 0.74 0.73 0.75 0.73 0.77 0.72 0.76 0.78 0.75 0.83 0.85 0.90 1.06 1.18 1.13 1.12 1.21 1.15 1.09 1.01 0.95 1.00 0.92 0.88 0.86 0.83 0.78 0.76 0.83 0.87 0.88 1.02 1.14 1.11 0.91 0.81 0.81 0.79 0.72 0.67 0.63 0.58 0.55 0.55 0.58 0.62
0.73 0.73 0.65 0.74 0.60 0.62 0.78 0.75 0.77 0.78 0.80 0.91 0.88 0.87 0.89 1.06 1.21 1.26 1.23 1.22 1.19 1.10 0.99 0.99 0.95 0.86 0.81 0.79 0.76 0.74 0.75 0.79 0.82 0.85 0.93 0.99 1.03 0.84 0.82 0.82 0.78 0.71 0.66 0.61 0.60 0.58 0.60 0.62 0.64
0.81 0.61 0.62 0.73 0.77 0.68 0.86 0.73 0.78 0.84 0.84 0.83 0.86 1.02 1.02 1.13 1.18 1.20 1.14 1.17 1.16 1.12 1.03 1.02 0.93 0.82 0.74 0.72 0.75 0.73 0.74 0.68 0.71 0.77 0.84 0.94 0.90 0.86 0.92 0.80 0.73 0.68 0.64 0.60 0.65 0.64 0.67 0.70 0.70
0.70 0.61 0.68 0.85 0.85 0.75 0.93 0.72 0.74 0.75 0.69 0.86 1.07 1.11 1.11 1.09 1.13 1.12 1.07 1.05 1.08 1.02 0.98 0.99 0.92 0.80 0.72 0.69 0.68 0.69 0.62 0.61 0.67 0.77 0.90 0.91 0.97 0.98 0.85 0.76 0.69 0.67 0.65 0.65 0.70 0.69 0.70 0.77 0.76
0.70 0.58 0.75 0.75 0.71 0.66 0.63 0.64 0.80 0.82 0.66 0.90 0.98 1.06 1.08 1.04 1.12 1.11 1.05 1.07 1.11 1.03 0.99 0.97 0.92 0.78 0.76 0.66 0.70 0.60 0.61 0.65 0.80 0.91 1.00 1.01 1.11 0.92 0.75 0.69 0.72 0.77 0.74 0.70 0.76 0.76 0.76 0.73 0.73
0.57 0.69 0.72 0.71 0.66 0.60 0.56 0.66 0.78 0.86 0.81 0.94 1.10 1.10 1.07 1.02 1.08 1.07 1.01 1.07 1.12 1.00 1.03 1.03 0.91 0.76 0.77 0.77 0.66 0.64 0.69 0.69 0.79 0.92 0.98 0.88 0.90 0.81 0.79 0.82 0.79 0.81 0.76 0.75 0.78 0.73 0.71 0.71 0.71
0.52 0.65 0.73 0.66 0.57 0.56 0.59 0.60 0.73 0.69 0.87 1.11 1.15 1.07 1.02 1.04 1.10 1.11 1.04 1.07 1.10 1.02 1.04 1.07 0.91 0.76 0.78 0.75 0.73 0.75 0.75 0.79 0.80 0.87 0.91 0.82 0.81 0.79 0.82 0.74 0.76 0.72 0.68 0.64 0.69 0.73 0.75 0.76 0.76
0.56 0.65 0.74 0.68 0.60 0.60 0.57 0.59 0.62 0.65 0.87 1.02 1.02 0.99 1.00 1.03 1.08 1.09 1.01 1.01 1.03 1.11 1.10 1.08 0.86 0.78 0.74 0.76 0.76 0.76 0.75 0.80 0.82 0.78 0.79 0.82 0.80 0.76 0.76 0.72 0.70 0.67 0.66 0.63 0.68 0.75 0.78 0.81 0.79
0.51 0.53 0.65 0.61 0.59 0.57 0.66 0.56 0.51 0.73 0.93 0.94 0.97 0.92 0.92 1.04 1.09 1.05 1.02 1.00 1.03 1.12 1.11 1.01 0.83 0.77 0.71 0.79 0.73 0.71 0.72 0.80 0.75 0.78 0.78 0.79 0.81 0.78 0.73 0.74 0.70 0.67 0.64 0.59 0.67 0.73 0.74 0.76 0.79
0.41 0.47 0.47 0.59 0.57 0.58 0.65 0.52 0.66 0.79 0.90 0.92 1.00 0.96 0.98 0.99 1.06 1.08 1.06 1.04 1.07 1.11 1.07 0.97 0.82 0.75 0.72 0.74 0.73 0.72 0.69 0.74 0.74 0.76 0.74 0.77 0.79 0.76 0.76 0.71 0.69 0.66 0.63 0.65 0.70 0.75 0.76 0.76 0.75
0.34 0.35 0.42 0.45 0.54 0.57 0.65 0.56 0.61 0.86 0.85 0.90 0.95 0.95 1.00 1.03 1.07 1.09 1.08 1.08 1.09 1.10 1.04 0.92 0.80 0.73 0.69 0.73 0.72 0.71 0.67 0.65 0.68 0.77 0.74 0.73 0.76 0.73 0.73 0.73 0.70 0.65 0.63 0.65 0.77 0.77 0.77 0.71 0.70
0.24 0.35 0.40 0.40 0.45 0.53 0.56 0.68 0.69 0.69 0.71 0.69 0.90 0.96 0.96 1.00 1.01 1.08 1.08 1.09 1.09 1.09 1.04 0.90 0.80 0.72 0.69 0.74 0.73 0.68 0.65 0.67 0.74 0.80 0.79 0.73 0.74 0.71 0.71 0.75 0.72 0.69 0.65 0.67 0.79 0.76 0.76 0.72 0.66
0.30 0.31 0.34 0.40 0.48 0.50 0.67 0.68 0.75 0.81 0.77 0.76 0.87 0.96 0.94 0.93 1.05 1.09 1.09 1.08 1.06 1.07 1.00 0.86 0.76 0.71 0.69 0.77 0.68 0.63 0.61 0.65 0.71 0.77 0.81 0.79 0.73 0.72 0.68 0.74 0.70 0.68 0.65 0.71 0.81 0.76 0.74 0.72 0.72
0.33 0.33 0.32 0.34 0.39 0.50 0.54 0.62 0.66 0.66 0.67 0.75 0.72 0.91 1.06 0.93 0.99 1.02 1.03 1.03 1.03 1.02 0.95 0.82 0.72 0.69 0.68 0.77 0.72 0.73 0.68 0.68 0.74 0.77 0.83 0.80 0.75 0.72 0.65 0.73 0.69 0.67 0.68 0.70 0.79 0.77 0.76 0.76 0.76
0.38 0.34 0.35 0.35 0.40 0.44 0.49 0.52 0.62 0.64 0.61 0.62 0.76 0.83 1.21 1.03 0.89 0.95 0.97 0.98 1.03 0.98 0.91 0.77 0.71 0.72 0.72 0.76 0.77 0.82 0.82 0.76 0.73 0.75 0.81 0.78 0.75 0.71 0.69 0.70 0.73 0.70 0.72 0.68 0.79 0.79 0.80 0.76 0.78
0.34 0.41 0.41 0.38 0.41 0.37 0.49 0.38 0.46 0.53 0.48 0.52 0.61 0.86 1.06 1.03 0.92 0.96 0.95 0.96 0.99 0.95 0.94 0.83 0.76 0.77 0.77 0.79 0.71 0.75 0.74 0.69 0.73 0.78 0.84 0.79 0.76 0.71 0.71 0.72 0.75 0.75 0.73 0.73 0.80 0.86 0.85 0.85 0.78
0.30 0.38 0.38 0.38 0.40 0.43 0.41 0.40 0.41 0.53 0.52 0.47 0.53 0.71 0.96 0.95 0.87 0.89 0.90 0.95 1.00 0.96 0.94 0.86 0.80 0.80 0.81 0.78 0.74 0.75 0.77 0.77 0.80 0.81 0.81 0.80 0.77 0.76 0.74 0.73 0.76 0.77 0.76 0.82 0.86 0.89 0.86 0.90 0.86
0.39 0.38 0.37 0.37 0.37 0.33 0.36 0.41 0.38 0.45 0.46 0.47 0.60 0.65 0.72 0.97 1.00 1.03 1.00 1.01 0.98 1.00 0.97 0.90 0.80 0.79 0.82 0.78 0.79 0.79 0.78 0.80 0.77 0.79 0.81 0.81 0.79 0.79 0.77 0.75 0.78 0.80 0.77 0.81 0.82 0.83 0.86 0.86 0.84
0.38 0.35 0.29 0.29 0.29 0.26 0.39 0.43 0.36 0.48 0.47 0.49 0.60 0.65 0.72 0.99 1.03 1.01 0.94 0.92 0.92 0.97 0.93 0.92 0.82 0.77 0.81 0.80 0.77 0.85 0.86 0.85 0.80 0.83 0.84 0.81 0.78 0.78 0.76 0.75 0.79 0.81 0.81 0.82 0.82 0.79 0.83 0.84 0.83
0.33 0.35 0.30 0.20 0.25 0.27 0.39 0.37 0.37 0.48 0.47 0.50 0.67 0.72 0.74 0.95 1.00 0.94 0.92 0.89 0.89 0.95 0.90 0.92 0.87 0.80 0.79 0.81 0.81 0.84 0.93 0.91 0.89 0.89 0.89 0.86 0.78 0.85 0.79 0.77 0.83 0.84 0.85 0.86 0.84 0.81 0.80 0.85 0.87
0.27 0.30 0.31 0.32 0.31 0.31 0.38 0.46 0.48 0.48 0.44 0.43 0.54 0.61 0.59 0.88 0.94 0.88 0.90 0.85 0.89 0.90 0.90 0.90 0.89 0.88 0.85 0.83 0.84 0.84 0.93 0.94 0.90 0.95 0.92 0.89 0.87 0.89 0.88 0.81 0.81 0.86 0.88 0.87 0.84 0.80 0.80 0.80 0.87
0.29 0.31 0.28 0.32 0.23 0.24 0.28 0.37 0.36 0.46 0.48 0.44 0.47 0.54 0.50 0.63 0.85 0.85 0.84 0.82 0.87 0.91 0.92 0.95 0.95 0.93 0.94 0.90 0.87 0.86 0.87 0.96 0.98 0.96 0.96 0.93 0.90 0.90 0.91 0.90 0.82 0.83 0.84 0.85 0.81 0.80 0.81 0.80 0.87
0.25 0.28 0.30 0.30 0.33 0.25 0.23 0.28 0.38 0.42 0.51 0.56 0.60 0.56 0.51 0.49 0.71 0.79 0.80 0.87 0.88 0.92 0.92 0.92 0.94 0.93 0.95 0.96 0.93 0.91 0.91 0.93 0.98 0.98 0.98 0.97 0.95 0.94 0.94 0.98 0.94 0.87 0.84 0.83 0.79 0.79 0.78 0.78 0.86
0.27 0.28 0.32 0.28 0.22 0.30 0.32 0.26 0.40 0.44 0.52 0.57 0.65 0.63 0.47 0.53 0.69 0.79 0.84 0.89 0.88 0.87 0.88 0.87 0.92 0.90 0.91 0.95 0.95 0.92 0.96 0.97 0.96 0.96 0.98 0.99 0.96 0.98 0.95 0.98 0.98 0.95 0.90 0.85 0.78 0.74 0.77 0.76 0.83
Wind_Speed
3 3 2 1 1 3 3 3 2 4 5 6 6 9 10 10 8 4 3 4 3 3 3 4 4 4 4 4 5 5 5 5 5 5 5 6 6 7 8 8 8 8 8 9 9 9 9 9 9
3 4 5 3 5 5 1 1 4 5 5 5 5 6 8 11 7 4 3 2 2 3 3 4 4 3 3 3 4 4 4 3 3 4 4 5 6 7 7 7 8 8 8 8 8 9 9 9 9
4 4 3 2 3 4 4 3 4 3 3 3 4 7 8 6 4 4 3 2 2 3 4 4 3 2 2 2 3 3 3 3 3 3 4 5 6 7 6 6 7 7 7 7 8 9 9 9 8
5 3 3 7 5 3 2 3 3 2 3 4 4 6 6 6 4 3 2 1 3 5 4 3 2 2 1 2 3 3 3 3 3 4 5 7 7 7 6 6 6 6 7 7 8 9 9 9 9
7 4 4 7 7 5 0 3 3 1 2 3 5 7 7 7 5 3 3 2 5 3 2 2 2 1 2 3 3 3 3 3 4 5 6 7 7 7 6 6 6 6 6 7 8 9 10 9 9
8 10 9 7 6 6 4 5 4 2 1 3 3 6 7 5 5 3 2 3 3 1 1 1 1 1 2 3 3 3 3 4 5 6 6 7 7 6 6 5 5 5 6 8 9 10 10 10 9
11 9 8 14 10 8 4 6 6 4 2 1 1 2 4 3 3 3 2 2 1 0 0 1 1 1 2 3 3 4 4 5 6 6 6 7 6 5 5 4 4 5 6 8 9 10 10 10 9
13 13 16 10 4 4 4 6 6 5 1 1 2 5 2 1 2 1 2 1 2 1 1 1 1 2 2 3 3 4 5 6 6 7 7 7 6 5 4 3 3 4 5 7 8 9 9 10 10
14 11 8 8 11 5 9 8 6 4 4 4 3 2 2 2 0 1 0 1 1 1 2 3 2 2 3 3 4 4 5 6 7 7 8 7 6 5 3 2 2 3 5 7 8 8 9 9 11
15 13 9 9 7 4 10 8 9 7 8 3 1 1 2 2 1 2 3 2 2 3 4 4 4 3 3 3 4 5 5 7 7 7 8 6 6 5 3 1 1 3 5 6 7 9 9 10 10
18 17 10 10 9 9 9 10 8 12 9 8 8 5 4 4 3 4 5 4 4 4 5 5 5 4 5 4 5 6 7 7 7 7 7 6 7 4 2 1 2 4 5 7 8 9 11 10 10
21 20 18 14 8 10 13 11 12 12 6 12 11 9 7 7 5 6 7 5 5 6 6 6 5 5 5 5 6 7 7 8 7 6 7 7 6 4 3 3 4 5 6 8 7 10 10 10 10
23 22 20 15 15 14 15 15 12 12 6 11 12 9 9 9 7 7 7 6 5 6 6 6 5 6 6 6 6 7 7 8 8 6 6 7 5 5 5 4 4 3 6 7 8 9 10 10 10
22 22 21 22 17 17 17 16 16 15 11 10 11 11 10 10 9 8 8 7 6 5 5 5 6 6 7 6 7 7 8 8 7 7 7 6 6 5 4 4 4 4 6 7 8 9 9 9 10
24 24 22 22 21 19 17 18 19 18 13 12 12 12 12 12 11 10 9 9 6 5 5 6 6 7 8 6 7 7 8 8 7 7 8 6 6 5 4 4 4 4 6 7 7 8 9 10 10
26 25 24 23 23 22 20 21 18 15 15 15 15 14 13 13 12 11 10 9 8 6 6 7 8 8 9 8 8 8 8 8 8 8 8 7 6 6 5 4 4 5 5 6 7 8 9 10 11
26 25 27 26 25 24 23 21 18 14 16 18 16 14 14 13 13 13 12 11 9 7 8 8 9 9 10 9 9 8 8 8 8 8 7 8 7 7 5 5 4 4 5 5 6 8 9 10 11
28 26 26 26 24 24 28 27 20 21 21 19 17 16 15 14 14 14 13 12 11 9 9 10 10 10 10 9 8 8 8 8 8 7 7 8 8 7 6 5 4 4 4 5 5 7 9 10 12
29 30 30 28 23 26 24 24 23 23 17 16 17 18 16 16 15 15 14 13 12 10 11 11 11 11 11 10 9 8 8 8 8 8 8 9 8 8 7 6 5 4 4 4 5 6 8 10 12
32 33 32 30 28 24 26 28 27 24 24 23 21 18 19 15 16 16 15 15 14 12 12 13 13 12 12 10 10 9 8 8 7 8 8 9 10 9 8 6 5 5 4 4 4 6 7 9 12
32 31 31 32 28 23 24 30 29 26 21 23 22 21 25 19 18 18 17 17 16 14 14 14 14 14 13 12 10 9 8 7 8 8 8 9 10 10 9 8 6 6 5 5 5 6 7 10 12
30 31 31 28 28 26 24 28 29 26 29 28 25 23 24 21 21 21 19 19 18 16 16 15 15 14 14 13 12 11 10 8 8 8 8 9 10 10 10 9 8 7 7 7 7 7 8 10 12
31 30 28 27 29 32 34 26 26 26 26 27 26 24 25 22 23 23 22 21 20 18 17 17 16 16 15 15 13 12 11 9 8 8 8 9 11 11 11 11 10 9 8 8 8 9 10 11 12
31 28 28 29 28 30 36 30 32 29 29 23 21 26 26 28 23 24 22 22 21 20 18 18 18 17 17 17 15 14 13 10 9 8 9 10 11 12 12 12 12 11 10 10 10 10 11 12 13
30 30 25 26 28 33 29 29 35 30 28 21 24 25 26 34 25 25 24 24 24 22 21 19 19 18 18 18 18 15 14 13 11 10 9 10 11 12 13 13 13 12 12 12 12 12 13 13 15
30 28 27 34 27 30 29 31 33 32 32 23 20 25 21 28 27 26 25 26 25 23 22 21 20 19 19 19 19 18 16 15 13 12 11 11 12 12 13 14 14 14 14 14 14 14 15 15 16
35 33 34 31 31 28 27 28 30 28 27 28 25 22 23 29 27 27 26 28 26 24 23 22 21 20 19 19 19 20 18 18 17 15 14 13 13 13 14 15 16 17 16 17 17 17 17 17 17
40 35 30 30 33 34 33 31 26 24 27 24 25 26 24 25 28 27 27 29 28 25 23 22 21 20 20 19 19 19 21 19 18 18 16 15 15 14 15 16 17 18 18 18 18 18 18 18 18
31 36 33 32 31 32 32 34 30 24 20 23 25 26 26 26 27 27 28 29 28 26 24 22 21 20 20 20 20 20 19 20 21 19 19 18 17 17 16 16 17 18 19 20 20 19 20 19 19
40 34 39 31 38 33 33 37 28 27 20 23 28 27 25 27 26 29 30 29 28 27 25 23 22 21 20 21 21 21 20 20 21 22 21 20 20 18 19 18 18 19 20 20 21 21 20 20 19
Wind_Direction
220 202 171 134 349 298 285 69 38 56 67 26 31 25 44 30 8 47 73 79 101 103 129 132 122 119 108 99 105 108 102 101 97 97 98 97 101 100 96 86 78 74 69 65 57 49 43 40 36
222 227 230 264 257 330 300 51 79 45 34 33 28 5 33 38 35 68 41 94 93 115 134 141 135 124 111 114 121 119 113 106 102 106 107 109 114 110 102 88 78 74 69 60 48 38 32 28 25
217 207 243 238 261 279 96 99 86 53 22 10 17 18 4 27 22 27 75 99 101 117 132 144 146 139 127 130 138 140 130 117 110 115 120 125 123 116 105 90 82 74 64 51 39 30 24 19 15
196 184 227 247 287 316 49 104 111 91 35 8 13 29 18 21 19 24 70 90 123 120 121 135 153 163 166 158 155 154 146 133 124 123 120 130 127 120 108 95 84 73 57 40 30 22 17 13 9
207 221 225 294 265 267 213 132 159 70 32 40 5 33 29 31 44 51 94 111 128 121 122 132 154 184 191 182 177 176 170 153 143 136 128 132 129 121 110 98 86 68 50 35 25 19 15 13 12
233 243 268 321 278 251 215 181 191 195 83 31 63 63 23 44 50 66 95 108 128 131 119 165 184 196 193 194 189 187 179 168 158 150 141 140 135 126 113 102 82 61 43 32 24 20 16 15 14
235 253 264 272 262 232 197 199 217 231 208 254 343 62 19 50 45 62 95 100 94 101 271 210 215 202 204 194 195 192 185 176 168 162 156 151 144 133 121 105 79 52 34 25 21 18 18 18 18
243 267 277 276 267 201 218 214 227 246 279 58 299 314 297 89 43 77 96 99 72 36 134 206 251 237 220 206 198 192 189 181 176 170 166 161 153 143 132 109 71 38 24 17 14 16 20 18 11
248 251 284 288 269 232 229 229 220 247 227 276 299 341 149 153 80 96 184 126 11 316 274 263 248 246 223 212 198 192 187 184 179 172 168 163 162 155 142 117 56 20 12 9 9 8 7 5 8
233 245 250 240 235 200 229 240 221 249 255 220 277 75 166 205 251 269 233 230 289 296 274 264 249 243 224 207 197 189 186 177 174 171 170 176 175 173 166 143 15 356 357 357 356 355 351 345 341
235 241 238 279 254 251 250 252 231 254 252 216 242 231 226 228 256 262 243 250 280 290 280 260 241 236 211 205 195 190 180 182 175 176 185 175 171 181 197 236 317 334 339 343 340 346 346 347 349
244 243 255 262 270 260 257 263 253 264 251 246 225 225 233 237 258 254 248 245 277 278 281 255 235 222 213 203 195 191 190 185 193 202 186 189 197 209 237 255 302 304 326 329 339 341 345 347 345
244 247 253 265 260 264 259 260 272 252 250 294 208 224 239 247 252 251 248 252 269 276 273 240 225 211 204 194 195 191 191 193 197 198 192 190 210 231 252 258 298 316 325 334 335 338 340 342 345
248 251 252 255 262 260 253 255 259 258 238 200 218 236 244 247 247 245 246 251 261 269 257 216 206 205 196 197 194 195 193 194 195 199 200 214 222 228 241 263 286 309 326 333 337 344 343 347 343
253 257 254 247 253 258 248 251 259 251 220 230 234 245 243 245 243 241 242 248 252 256 239 208 205 204 198 198 193 196 197 199 204 207 210 218 225 233 241 255 283 308 322 333 343 346 349 348 346
250 250 252 250 249 248 248 256 254 235 227 243 248 251 243 239 238 238 238 240 240 246 224 210 210 207 204 203 205 205 202 205 210 215 219 224 227 231 245 260 279 303 321 333 340 347 348 348 346
247 247 245 250 251 250 242 244 247 223 237 237 236 245 241 236 235 235 235 233 234 234 217 212 210 207 208 208 208 209 207 213 217 216 222 225 229 232 247 256 271 295 316 331 342 347 350 351 350
241 244 247 252 248 245 241 240 233 242 242 245 238 242 236 233 234 232 231 229 231 224 219 214 209 207 205 206 207 210 211 214 215 219 229 224 228 230 243 249 266 281 307 324 342 351 355 357 354
246 249 250 248 246 248 244 236 245 256 240 234 236 233 235 232 234 226 227 225 223 222 216 211 207 204 204 206 206 210 213 218 222 232 232 225 232 234 235 246 256 271 296 310 336 349 358 1 359
246 250 252 256 255 249 234 248 246 243 237 237 249 240 214 231 229 224 225 225 221 220 214 210 209 206 208 210 211 213 215 223 229 233 234 231 234 233 233 244 252 262 279 296 317 334 344 353 355
249 252 252 256 259 266 252 244 248 244 244 251 235 236 232 236 230 222 222 223 219 219 213 210 209 208 210 210 210 212 217 224 231 237 238 236 232 232 233 240 248 257 270 281 297 313 325 334 342
254 247 255 263 261 256 245 254 248 250 255 246 236 228 224 231 229 222 222 221 219 217 213 212 210 210 211 211 213 215 218 228 234 238 241 237 232 232 237 240 248 255 267 274 284 299 313 324 328
254 256 260 261 248 256 253 254 253 251 251 247 238 222 228 234 224 221 222 220 218 214 213 213 213 213 214 215 217 219 224 233 236 243 243 240 237 236 239 243 247 257 266 273 282 293 303 316 320
252 249 249 251 253 252 247 250 253 248 251 251 223 232 240 225 223 221 219 217 216 214 215 215 215 216 216 217 219 221 225 233 240 243 247 246 243 241 242 245 248 255 261 273 277 289 299 310 316
245 245 248 248 242 247 245 249 253 250 250 245 241 236 242 222 218 216 216 217 215 215 215 215 216 218 218 219 221 226 228 236 241 246 252 248 246 246 245 246 250 256 261 269 275 285 293 300 309
244 243 239 246 248 253 248 241 252 248 250 244 222 234 218 211 217 217 220 217 214 213 214 216 218 220 221 223 225 229 232 238 245 248 254 254 249 252 249 248 251 256 261 268 273 282 290 295 304
244 241 245 251 252 258 252 258 249 251 246 236 226 227 221 209 218 218 220 214 212 213 215 217 220 224 225 226 229 231 237 240 244 252 254 255 256 257 254 254 255 258 262 266 272 278 284 290 297
238 241 244 242 244 246 248 247 246 238 251 240 230 222 222 219 221 220 217 211 212 214 215 218 223 226 228 229 231 235 237 241 245 248 254 254 257 259 259 259 259 261 263 266 270 276 280 284 291
250 234 235 244 239 243 250 246 245 251 236 250 248 225 226 222 219 218 214 210 212 214 216 220 224 228 232 233 234 237 240 242 244 250 252 254 257 259 264 263 264 265 265 267 270 273 277 280 287
246 249 232 237 242 241 246 249 245 249 240 241 235 233 223 218 217 214 212 210 213 215 218 222 226 231 235 235 237 239 242 245 247 248 251 253 255 259 261 266 267 269 268 267 269 270 275 275 281